Santorini Island, Greece

3:53 AM EEST on May 23, 2017 (GMT +0300)
Santorini

Weather History for LGSR - July, 2013

Change the Weather History Date:

Sunday, July 21, 2013

  Actual Average Record
Temperature  
Mean Temperature 80 °F -  
Max Temperature 86 °F 83 °F 89 °F (2010)
Min Temperature 73 °F 72 °F 71 °F (2004)
Cooling Degree Days 14    
Growing Degree Days 30 (Base 50)    
Moisture  
Dew Point 57 °F    
Average Humidity 47    
Maximum Humidity 69    
Minimum Humidity 29    
Precipitation  
Precipitation 0.00 in - - ()
Sea Level Pressure  
Sea Level Pressure 29.78 in    
Wind  
Wind Speed 14 mph ()    
Max Wind Speed 23 mph    
Max Gust Speed -    
Averages and records for this station are not official NWS values.
T = Trace of Precipitation, MM = Missing Value Source: Averaged Metar Reports

Daily Weather History Graph

Daily Weather History Graph

Search for Another Location

Airport or City:

Trip Planner

Search our weather history database for the weather conditions in past years. The results will help you decide how hot, cold, wet, or windy it might be!

Date:

Astronomy

Jul. 21, 2013 Rise Set
Actual Time 6:16 AM EEST 8:32 PM EEST
Civil Twilight 5:46 AM EEST 9:01 PM EEST
Nautical Twilight 5:10 AM EEST 9:37 PM EEST
Astronomical Twilight 4:31 AM EEST 10:16 PM EEST
Moon 7:14 PM EEST (7/21) 4:39 AM EEST (7/21)
Length of Visible Light 15h 14m
Length of Day
14h 16m
Waxing Gibbous, 97% of the Moon is Illuminated
Jul 21
Waxing Gibbous
Jul 22
Full
Jul 29
Last Quarter
Aug 7
New
Aug 14
First Quarter

Hourly Weather History & Observations

Time (EEST) Temp. Heat Index Dew Point Humidity Pressure Visibility Wind Dir Wind Speed Gust Speed Precip Events Conditions
12:20 AM 75.2 °F - 62.6 °F 65% 29.80 in - West 13.8 mph - N/A   Clear
12:50 AM 75.2 °F - 62.6 °F 65% 29.80 in - West 12.7 mph - N/A   Clear
1:20 AM 75.2 °F - 62.6 °F 65% 29.77 in - West 15.0 mph - N/A   Clear
1:50 AM 75.2 °F - 62.6 °F 65% 29.77 in - West 16.1 mph - N/A   Clear
2:20 AM 75.2 °F - 62.6 °F 65% 29.77 in - West 15.0 mph - N/A   Clear
2:50 AM 75.2 °F - 62.6 °F 65% 29.77 in - West 15.0 mph - N/A   Clear
3:50 AM 73.4 °F - 62.6 °F 69% 29.77 in - West 11.5 mph - N/A   Clear
4:20 AM 73.4 °F - 60.8 °F 65% 29.77 in - WNW 10.4 mph - N/A   Clear
4:50 AM 75.2 °F - 59.0 °F 57% 29.77 in - WNW 10.4 mph - N/A   Clear
5:20 AM 75.2 °F - 59.0 °F 57% 29.77 in - WNW 11.5 mph - N/A   Clear
5:50 AM 75.2 °F - 59.0 °F 57% 29.77 in - WNW 10.4 mph - N/A   Clear
6:20 AM 73.4 °F - 60.8 °F 65% 29.77 in - WNW 8.1 mph - N/A   Clear
6:50 AM 75.2 °F - 62.6 °F 65% 29.77 in - WNW 9.2 mph - N/A   Clear
7:20 AM 75.2 °F - 60.8 °F 61% 29.77 in - WNW 13.8 mph - N/A   Clear
7:50 AM 77.0 °F - 60.8 °F 57% 29.77 in - NNW 17.3 mph - N/A   Clear
8:20 AM 78.8 °F - 59.0 °F 51% 29.77 in - NW 15.0 mph - N/A   Clear
8:50 AM 80.6 °F 81.1 °F 59.0 °F 48% 29.77 in - NW 16.1 mph - N/A   Clear
9:20 AM 80.6 °F 81.5 °F 60.8 °F 51% 29.77 in - North 10.4 mph - N/A   Clear
9:50 AM 82.4 °F 82.5 °F 59.0 °F 45% 29.77 in - NNW 15.0 mph - N/A   Clear
10:20 AM 82.4 °F 82.5 °F 59.0 °F 45% 29.77 in - NW 13.8 mph - N/A   Clear
10:50 AM 84.2 °F 83.8 °F 59.0 °F 42% 29.77 in - West 12.7 mph - N/A   Clear
11:20 AM 84.2 °F 82.8 °F 53.6 °F 35% 29.80 in - North 15.0 mph - N/A   Clear
11:50 AM 84.2 °F 82.8 °F 53.6 °F 35% 29.80 in - NNW 19.6 mph - N/A   Clear
12:20 PM 84.2 °F - 51.8 °F 33% 29.80 in - NNW 19.6 mph - N/A   Clear
12:50 PM 84.2 °F 82.8 °F 53.6 °F 35% 29.77 in - NW 16.1 mph - N/A   Clear
1:20 PM 86.0 °F - 50.0 °F 29% 29.77 in - North 19.6 mph - N/A   Clear
1:50 PM 84.2 °F - 51.8 °F 33% 29.80 in - NW 21.9 mph - N/A   Clear
2:20 PM 84.2 °F - 51.8 °F 33% 29.77 in - NNW 23.0 mph - N/A   Clear
2:50 PM 84.2 °F 82.8 °F 53.6 °F 35% 29.77 in - NNW 20.7 mph - N/A   Clear
3:20 PM 84.2 °F - 51.8 °F 33% 29.77 in - NNW 20.7 mph - N/A   Clear
3:50 PM 84.2 °F 83.0 °F 55.4 °F 37% 29.77 in - NNW 20.7 mph - N/A   Clear
4:20 PM 84.2 °F 83.5 °F 57.2 °F 40% 29.77 in - NNW 23.0 mph - N/A   Clear
4:50 PM 84.2 °F 83.0 °F 55.4 °F 37% 29.77 in - NNW 20.7 mph - N/A   Clear
5:20 PM 84.2 °F 82.8 °F 53.6 °F 35% 29.77 in - NNW 20.7 mph - N/A   Clear
5:50 PM 82.4 °F 81.7 °F 55.4 °F 39% 29.77 in - NNW 20.7 mph - N/A   Clear
6:20 PM 82.4 °F 81.7 °F 55.4 °F 39% 29.77 in - NNW 18.4 mph - N/A   Clear
6:50 PM 82.4 °F 81.7 °F 55.4 °F 39% 29.77 in - NNW 20.7 mph - N/A   Clear
7:20 PM 82.4 °F 81.4 °F 53.6 °F 37% 29.77 in - NNW 20.7 mph - N/A   Clear
7:50 PM 80.6 °F 80.3 °F 53.6 °F 39% 29.77 in - NW 20.7 mph - N/A   Clear
8:20 PM 80.6 °F 80.5 °F 55.4 °F 42% 29.77 in - NW 17.3 mph - N/A   Clear
8:50 PM 80.6 °F 80.3 °F 53.6 °F 39% 29.77 in - NNW 20.7 mph - N/A   Clear
9:20 PM 80.6 °F 80.3 °F 53.6 °F 39% 29.77 in - NW 20.7 mph - N/A   Clear
9:50 PM 78.8 °F - 55.4 °F 44% 29.80 in - NW 11.5 mph - N/A   Clear
10:20 PM 78.8 °F - 55.4 °F 44% 29.80 in - NW 13.8 mph - N/A   Clear
10:50 PM 78.8 °F - 55.4 °F 44% 29.80 in - WNW 13.8 mph - N/A   Clear
11:20 PM 78.8 °F - 57.2 °F 47% 29.80 in - WNW 16.1 mph - N/A   Clear
11:50 PM 78.8 °F - 57.2 °F 47% 29.80 in - NW 16.1 mph - N/A   Clear